Regional Weather Roundup
Issued by NWS

Home | Current Version | Previous Version | Text Only | Print | Product List | Glossary Off
Versions: 1 2 3 4 5 6 7 8 9 10 11 12 13 14 15 16 17 18 19 20 21 22 23 24 25 26 27 28 29 30 31 32 33 34 35 36 37 38 39 40 41 42 43 44 45 46 47 48 49 50

000
ASUS43 KDTX 240101
RWRMI
MICHIGAN HOURLY REGIONAL WEATHER ROUNDUP
NATIONAL WEATHER SERVICE DETROIT/PONTIAC MI
900 PM EDT MON OCT 23 2017

NOTE: "FAIR" INDICATES FEW OR NO CLOUDS BELOW 12,000 FEET WITH NO
SIGNIFICANT WEATHER AND/OR OBSTRUCTION TO VISIBILITY.

MIZ047>049-052>055-059>063-066>070-074>076-081>083-240200-
SOUTHEAST LOWER MICHIGAN

CITY           SKY/WX    TMP DP  RH WIND       PRES   REMARKS
ADRIAN         LGT RAIN  54  53  97 W10       29.46R FOG
ALMA           RAIN      51  50  95 NW15G23   29.40F
ANN ARBOR      CLOUDY    57  54  89 S24G35    29.42S
BAD AXE        LGT RAIN  63  60  91 SE13G23   29.39F
CARO           CLOUDY    60  57  88 S18G25    29.37S
DETROIT CITY   CLOUDY    61  58  90 S22G33    29.46S
DETROIT        CLOUDY    61  57  87 S21G37    29.46F
FLINT          LGT RAIN  59  57  93 S15       29.37F FOG
GROSSE ILE     CLOUDY    61  57  87 S24G31    29.46S
HILLSDALE      HVY RAIN  52  50  93 W18G26    29.48R
HOWELL         HVY RAIN  58  57  96 S14       29.36F

CITY           SKY/WX    TMP DP  RH WIND       PRES   REMARKS
JACKSON        LGT RAIN  53  50  89 SW13      29.43R FOG
LAMBERTVILLE   CLOUDY    59  54  82 SW14G29   29.49R
LANSING        LGT RAIN  52  49  89 NW18      29.40F FOG
LAPEER         CLOUDY    59  57  94 S15       29.40F
MASON          RAIN      53  51  92 W14       29.39F
MONROE         CLOUDY    62  56  83 S16G29    29.46S
MT. CLEMENS    CLOUDY    61  61 100 S28G36    29.43F
PONTIAC        CLOUDY    59  57  93 S18G26    29.39F
PORT HOPE        N/A     61  59  93 SE23G36   29.38F
PORT HURON     CLOUDY    61  57  88 S10       29.46F
TRI CITIES     LGT RAIN  57  57 100 NW9G25    29.34F FOG
MIDLAND        RAIN      53  53  99 NW10      29.35F
TROY           CLOUDY    61  57  88 S15G24    29.45S
SAGINAW HB     CLOUDY    61  59  94 S18G25    29.34F
$$
MIZ043>046-050>051-056>058-064>065-071>073-077>080-240200-
SOUTHWEST LOWER MICHIGAN

CITY           SKY/WX    TMP DP  RH WIND       PRES   REMARKS
BATTLE CREEK   LGT RAIN  52  51  97 NW18G28   29.50R
BENTON HARBOR  CLOUDY    55  49  80 W15G22    29.61S
BIG RAPIDS     MIX PCPN  49  47  91 NW14G21   29.48F
COLDWATER      LGT RAIN  52  52  99 W14G25    29.53R
FREMONT        RAIN      49  49 100 NW16      29.53F
HOLLAND        LGT RAIN  52  48  86 VRB7      29.57F
GRAND RAPIDS   RAIN      52  52 100 NW18G28   29.49F
IONIA          LGT RAIN  52  51  97 NW16G26   29.44S
KALAMAZOO      LGT RAIN  52  48  86 NW17G25   29.54R
LUDINGTON      LGT RAIN  48  45  88 N7        29.57F
MARSHALL       LGT RAIN  52  51  98 W17G23    29.47R
MOUNT PLEASANT HVY RAIN  53  51  93 NW13G20   29.40F
MUSKEGON       LGT RAIN  52  48  86 NW14G21   29.56F
SOUTH HAVEN    CLOUDY    55  50  82 NW12G21   29.59R
$$
MIZ016>042-240200-
NORTHERN LOWER MICHIGAN

CITY           SKY/WX    TMP DP  RH WIND       PRES   REMARKS
ALPENA         RAIN      54  54 100 N15       29.44F FOG
BEAVER ISLAND  RAIN      50  47  90 N5        29.61F
BELLAIRE       MIX PCPN  48  46  93 NW5       29.55F
CADILLAC       MIX PCPN  47  46  99 N13G18    29.50F
CHARLEVOIX     RAIN      51  50  99 N13G18    29.59F
FRANKFORT      RAIN      51  48  90 N7        29.58F
GAYLORD        LGT RAIN  46  44  93 N8G17     29.50F FOG
GRAYLING       RAIN      48  45  90 NW13G22   29.50F
HARBOR SPRINGS RAIN      48  47  94 N8        29.54F
HOUGHTON LAKE  HVY RAIN  48  47  96 NW13G23   29.46F FOG
MANISTEE       RAIN      47  45  93 NW5       29.57F
OSCODA         LGT RAIN  60  60  98 SE16G25   29.38F
PELLSTON       LGT RAIN  50  48  93 NW13      29.55F
ROGERS CITY    HVY RAIN  53  52  97 N14G20    29.48F
TRAVERSE CITY  RAIN      51  48  89 N7        29.54F FOG
$$
MIZ007>008-015-240200-
EASTERN UPPER MICHIGAN

CITY           SKY/WX    TMP DP  RH WIND       PRES   REMARKS
MACKINAC ISLAN MIX PCPN  51  51 100 N12G22    29.55F
NEWBERRY       LGT RAIN  48  47  97 N3        29.61F
S. S. MARIE    LGT RAIN  52  49  89 N8        29.57F
MUNISING         N/A     48  47  96 CALM      29.63F
$$
MIZ004>006-011>014-085-240200-
CENTRAL UPPER MICHIGAN

CITY           SKY/WX    TMP DP  RH WIND       PRES   REMARKS
MANISTIQUE     CLOUDY    48  42  81 CALM      29.62S
ESCANABA       CLOUDY    48  46  93 N3        29.63F
MENOMINEE      CLOUDY    48  47  96 CALM      29.63F
SAWYER-GWINN   CLEAR     45  43  93 CALM      29.63F
$$
MIZ001>003-009>011-084-240200-
WESTERN UPPER MICHIGAN

CITY           SKY/WX    TMP DP  RH WIND       PRES   REMARKS
IRON MOUNTAIN  CLOUDY    44  40  85 CALM      29.62F
HOUGHTON       CLOUDY    51  42  71 N7        29.64F
COPPER HARBOR    N/A     50  46  86 W3        29.65F
IRONWOOD       CLOUDY    52  46  80 NW15G29   29.68S
$$

ABBREVIATIONS USED IN REMARKS
   TC - TEMPERATURE IN CELSIUS
  WCI - WIND CHILL INDEX
   HX - HEAT INDEX
  VSB - VISIBILITY




USA.gov is the U.S. government's official web portal to all federal, state and local government web resources and services.